[[{"header":{"parameterUnit":"m.s-1","parameterCategory":1,"la1":30.2991,"la2":30.254,"lo1":-89.0895,"lo2":-89.0444,"dy":0.0017,"dx":0.0017,"nx":28,"ny":28,"refTime":"2024-03-07T03:00:00:Z","depth":0,"parameterNumber":2,"parameterNumberName":"U-component_of_WINDS"},"data":[0,0,0,0,0,0,0,0,0,0,0,0,0,0,0,0,0,0,0,0,0,0,0,0,0,0,0,0,0,0,0,0,0,0,0,0,0,0,0,0,0,0,0,0,0,0,0,0,0,0,0,0,0,0,0,0,0,0,-4.374,-4.3742,0,-4.388,-4.3882,-4.3883,-4.3882,-4.3881,-4.3879,-4.3877,-4.402,-4.4025,-4.4031,0,0,0,0,0,0,0,0,0,0,0,0,0,-4.3474,-4.3479,-4.374,-4.3742,-4.3744,-4.388,-4.3882,-4.3884,-4.3883,-4.388,-4.3878,-4.3876,-4.4018,-4.4025,-4.4031,0,0,0,0,0,0,0,0,0,0,0,0,0,-4.3599,-4.3481,-4.374,-4.376,-4.3763,-4.3879,-4.3882,-4.3884,-4.3883,-4.388,-4.3878,-4.3875,-4.4016,-4.4024,-4.4032,-4.4138,0,0,-4.4057,-4.4061,0,0,0,0,0,0,0,0,-4.3592,-4.3609,-4.3755,-4.3759,-4.3762,-4.3861,-4.384,-4.3969,-4.3884,-4.3838,-4.3877,-4.3874,-4.3969,-4.3981,-4.4013,-4.4145,-4.4151,-4.4058,-4.4063,-4.4067,-4.4069,0,0,0,0,0,0,0,-4.3583,-4.3603,-4.3796,-4.3757,-4.3762,-4.3762,-4.3777,-4.3865,-4.3917,-4.3841,-4.3842,-4.3858,-4.3971,-4.4005,-4.4017,-4.4153,-4.4058,-4.4065,-4.407,-4.4073,-4.4379,-4.4382,0,0,0,0,0,0,-4.3571,-4.3596,-4.3791,-4.38,-4.3669,-4.3769,-4.3786,-4.3832,-4.3916,-4.3926,-4.386,-4.3858,-4.3993,-4.4007,-4.4022,-4.4151,-4.4067,-4.4074,-4.4079,-4.4376,-4.438,-4.4384,0,0,0,0,0,0,-4.3565,-4.3588,-4.3785,-4.3698,-4.3723,-4.3777,-4.3829,-4.3836,-4.3871,-4.3931,-4.394,-4.3886,-4.3991,-4.401,-4.4109,-4.4156,-4.4078,-4.4086,-4.4373,-4.4377,-4.4382,-4.441,0,0,0,0,0,0,-4.3557,-4.3586,-4.3626,-4.3699,-4.3728,-4.387,-4.3832,-4.3841,-4.3885,-4.3883,-4.3957,-4.3967,-4.399,-4.4097,-4.4118,-4.4166,-4.4092,-4.4369,-4.4375,-4.438,-4.4405,-4.4415,-4.4424,0,0,0,0,0,-4.3548,-4.3628,-4.3628,-4.3652,-4.3779,-4.3873,-4.3889,-4.3915,-4.3889,-4.393,-4.3969,-4.3964,-4.4148,-4.4107,-4.413,-4.4182,-4.4366,-4.4373,-4.438,-4.4401,-4.4413,-4.4424,0,0,0,0,0,0,-4.3559,-4.3638,-4.3639,-4.3745,-4.3803,-4.3872,-4.3925,-4.3927,-4.3992,-4.3987,-4.4017,-4.4034,-4.4132,-4.4168,-4.412,-4.4289,-4.4254,-4.4266,-4.4262,-4.4274,-4.4283,-4.4271,-4.4099,0,0,0,0,0,-4.3574,-4.3644,-4.3709,-4.3797,-4.3826,-4.3871,-4.3912,-4.3927,-4.3988,-4.4012,-4.4057,-4.4116,-4.4187,-4.4233,-4.4302,-4.4412,-4.4428,-4.4459,-4.4468,-4.4476,-4.4485,-4.4545,-4.456,-4.4407,-4.4407,-4.4407,0,0,-4.3606,-4.3657,-4.3699,-4.3801,-4.3846,-4.3918,-4.3891,-4.3967,-4.402,-4.4023,-4.4119,-4.4156,-4.4223,-4.4328,-4.4377,-4.436,-4.4531,-4.4485,-4.449,-4.4495,-4.4554,-4.4568,-4.4581,-4.4412,-4.4411,-4.441,0,0,-4.3698,-4.3745,-4.3823,-4.387,-4.3941,-4.3971,-4.399,-4.406,-4.4084,-4.4182,-4.4186,-4.425,-4.4372,-4.442,-4.446,-4.4575,-4.4573,-4.4597,-4.4644,-4.4703,-4.4715,-4.4726,-4.4765,-4.4779,-4.4607,-4.4607,-4.4607,0,-4.3728,-4.3835,-4.3863,-4.394,-4.3984,-4.3992,-4.4071,-4.4116,-4.4205,-4.4236,-4.4217,-4.4371,-4.4417,-4.4533,-4.4561,-4.4595,-4.4617,-4.4587,-4.4711,-4.4722,-4.4733,-4.4771,-4.4786,-4.4609,-4.4609,-4.4609,-4.4608,0,-4.3868,-4.3942,-4.3997,-4.4083,-4.4135,-4.4212,-4.4253,-4.4301,-4.4313,-4.4345,-4.4445,-4.4501,-4.4582,-4.4611,-4.4623,-4.473,-4.4717,-4.4705,-4.4669,-4.4749,-4.4785,-4.48,-4.4612,-4.4611,-4.4611,-4.461,0,0,-4.3968,-4.4071,-4.409,-4.4129,-4.4209,-4.4267,-4.4347,-4.4426,-4.4466,-4.4529,-4.4596,-4.47,-4.469,-4.4736,-4.4754,-4.4806,-4.4892,-4.4787,-4.4789,-4.4803,-4.5012,-4.5019,-4.5035,-4.4893,-4.4896,-4.4898,-4.5006,0,-4.4067,-4.4207,-4.4236,-4.4356,-4.4426,-4.4436,-4.4505,-4.4562,-4.4595,-4.4659,-4.4696,-4.4769,-4.475,-4.4778,-4.483,-4.487,-4.4934,-4.4863,-4.4954,-4.4957,-4.4933,-4.5054,-4.5061,-4.5159,-4.502,-4.5023,-4.5024,0,-4.4201,-4.4267,-4.4395,-4.4466,-4.4497,-4.4558,-4.4633,-4.4695,-4.476,-4.4781,-4.4833,-4.4847,-4.493,-4.4893,-4.5008,-4.4959,-4.4999,-4.5025,-4.5029,-4.5036,-4.4993,-4.5062,-4.5192,-4.5205,-4.5047,-4.5045,-4.5044,0,-4.4259,-4.438,-4.4472,-4.4506,-4.4592,-4.4635,-4.4673,-4.4736,-4.4782,-4.4849,-4.4879,-4.4955,-4.4995,-4.5054,-4.5088,-4.5058,-4.52,-4.5166,-4.5218,-4.5218,-4.5245,-4.5242,-4.538,-4.5275,-4.5275,-4.5275,-4.5274,0,-4.4365,-4.4443,-4.4499,-4.4555,-4.4643,-4.4677,-4.4762,-4.48,-4.4857,-4.4921,-4.4936,-4.4996,-4.5038,-4.5104,-4.5131,-4.5222,-4.5241,-4.5259,-4.5265,-4.5256,-4.5254,-4.528,-4.5273,-4.5279,-4.5278,-4.5277,-4.5276,0,-4.4443,-4.4484,-4.4585,-4.4659,-4.468,-4.4741,-4.4805,-4.486,-4.4895,-4.4976,-4.4997,-4.5052,-4.5131,-4.5171,-4.527,-4.5288,-4.539,-4.5393,-4.5367,-4.5369,-4.5418,-4.5412,-4.5575,-4.5598,-4.5481,-4.5482,-4.5483,0,-4.4506,-4.4566,-4.4647,-4.4691,-4.473,-4.4801,-4.4849,-4.4886,-4.4935,-4.5015,-4.5061,-4.5141,-4.5206,-4.5332,-4.5381,-4.5457,-4.546,-4.5512,-4.5471,-4.5461,-4.5458,-4.5453,-4.5459,-4.5518,-4.5519,-4.552,-4.5521,0,-4.4614,-4.4632,-4.47,-4.4775,-4.4832,-4.4893,-4.4954,-4.4989,-4.5036,-4.5091,-4.5172,-4.5223,-4.5324,-4.5403,-4.5483,-4.5523,-4.553,-4.5534,-4.555,-4.554,-4.5522,-4.553,-4.5384,-4.5529,-4.5528,-4.5528,-4.5527,-4.5527,-4.4685,-4.4739,-4.4804,-4.488,-4.493,-4.4986,-4.5042,-4.5085,-4.5153,-4.5238,-4.5256,-4.5342,-4.5408,-4.5516,-4.5558,-4.5626,-4.5615,-4.5638,-4.5644,-4.5648,-4.5649,-4.5514,-4.5641,-4.5641,-4.5641,-4.5641,-4.5641,0,-4.4792,-4.4835,-4.4905,-4.4989,-4.5049,-4.5052,-4.512,-4.5169,-4.5244,-4.5305,-4.537,-4.5464,-4.5541,-4.5597,-4.5676,-4.572,-4.5725,-4.5739,-4.5734,-4.5743,-4.5656,-4.5633,-4.5733,-4.5733,-4.5733,-4.5733,-4.5733,-4.5733,-4.4854,-4.4945,-4.4971,-4.5087,-4.513,-4.5214,-4.5252,-4.5305,-4.5354,-4.5458,-4.5522,-4.5559,-4.5618,-4.5702,-4.5773,-4.5788,-4.5815,-4.5829,-4.5843,-4.576,-4.575,-4.574,-4.5719,-4.5835,-4.5835,-4.5925,-4.5926,-4.5926]},{"header":{"parameterUnit":"m.s-1","parameterCategory":1,"la1":30.2991,"la2":30.254,"lo1":-89.0895,"lo2":-89.0444,"dy":0.0017,"dx":0.0017,"nx":28,"ny":28,"refTime":"2024-03-07T03:00:00:Z","depth":0,"parameterNumber":3,"parameterNumberName":"V-component_of_WINDS"},"data":[0,0,0,0,0,0,0,0,0,0,0,0,0,0,0,0,0,0,0,0,0,0,0,0,0,0,0,0,0,0,0,0,0,0,0,0,0,0,0,0,0,0,0,0,0,0,0,0,0,0,0,0,0,0,0,0,0,0,2.9746,2.9747,0,2.9884,2.9886,2.9887,2.9906,2.9905,2.9903,2.9902,3.0042,3.0047,3.0052,0,0,0,0,0,0,0,0,0,0,0,0,0,2.9498,2.9502,2.9745,2.9747,2.9749,2.9884,2.9886,2.9888,2.9906,2.9905,2.9903,2.9901,3.0041,3.0047,3.0053,0,0,0,0,0,0,0,0,0,0,0,0,0,2.9617,2.9503,2.9745,2.9774,2.9778,2.9884,2.9886,2.9888,2.9907,2.9905,2.9903,2.9901,3.0039,3.0046,3.0053,3.0138,0,0,3.0076,3.0079,0,0,0,0,0,0,0,0,2.9611,2.9627,2.9768,2.9773,2.9777,2.9876,2.985,2.9972,2.9907,2.9858,2.9902,2.99,2.9988,3.0,3.003,3.0145,3.0151,3.0077,3.0081,3.0084,3.0087,0,0,0,0,0,0,0,2.9602,2.9621,2.98,2.977,2.9776,2.9781,2.9796,2.9873,2.9932,2.9862,2.9864,2.988,2.999,3.0023,3.0034,3.0153,3.0077,3.0083,3.0088,3.0091,3.0348,3.035,0,0,0,0,0,0,2.9589,2.9614,2.9796,2.9804,2.9688,2.9787,2.9804,2.9846,2.9932,2.9943,2.9881,2.988,3.0011,3.0025,3.0039,3.0146,3.0084,3.0091,3.0096,3.0346,3.0349,3.0351,0,0,0,0,0,0,2.9583,2.9605,2.979,2.971,2.9734,2.9793,2.9841,2.985,2.9882,2.9946,2.9957,2.9904,3.001,3.0028,3.0114,3.0151,3.0095,3.0101,3.0343,3.0347,3.035,3.036,0,0,0,0,0,0,2.9576,2.9603,2.9635,2.971,2.9738,2.9863,2.9843,2.9854,2.9895,2.9895,2.997,2.9981,3.001,3.0103,3.0122,3.016,3.0107,3.034,3.0345,3.0349,3.0356,3.0363,3.0369,0,0,0,0,0,2.9567,2.9631,2.9637,2.9658,2.978,2.9865,2.9881,2.9914,2.9898,2.9932,2.9974,2.9978,3.0144,3.0112,3.0133,3.0174,3.0338,3.0343,3.0349,3.0353,3.0362,3.0369,0,0,0,0,0,0,2.9557,2.9641,2.9648,2.9739,2.9795,2.9868,2.9911,2.9922,2.9983,2.998,3.0018,3.0035,3.012,3.0156,3.0118,3.0263,3.024,3.0249,3.0236,3.0245,3.0251,3.024,3.0113,0,0,0,0,0,2.9566,2.9629,2.9699,2.9772,2.98,2.9851,2.9889,2.9911,2.997,2.9994,3.0041,3.0099,3.0164,3.0206,3.027,3.0362,3.038,3.0401,3.0407,3.0412,3.042,3.0474,3.0485,3.0369,3.0369,3.0369,0,0,2.9584,2.9637,2.9674,2.9771,2.9817,2.9882,2.9871,2.9939,2.9987,3.0004,3.0089,3.0126,3.0193,3.0283,3.0325,3.0316,3.0456,3.0419,3.0422,3.0428,3.0481,3.0492,3.0501,3.0373,3.0372,3.0371,0,0,2.9649,2.9696,2.9763,2.981,2.9881,2.9915,2.9931,3.0004,3.003,3.0117,3.0131,3.019,3.0301,3.0349,3.0388,3.0476,3.0483,3.0495,3.0528,3.058,3.0589,3.0598,3.0631,3.0642,3.0503,3.0503,3.0503,0,2.9662,2.976,2.9796,2.9865,2.9908,2.9928,2.9997,3.0041,3.0128,3.0157,3.0146,3.0288,3.0334,3.0437,3.0459,3.0489,3.051,3.0487,3.0585,3.0594,3.0602,3.0634,3.0646,3.0504,3.0504,3.0504,3.0504,0,2.9774,2.9842,2.9888,2.9974,3.0022,3.009,3.0137,3.0182,3.02,3.0235,3.0324,3.0381,3.0458,3.0484,3.0501,3.059,3.0582,3.0577,3.0555,3.0614,3.0645,3.0657,3.0506,3.0506,3.0505,3.0505,0,0,2.9835,2.9942,2.9958,2.9999,3.008,3.0134,3.0204,3.028,3.0319,3.0379,3.044,3.0535,3.0533,3.0577,3.06,3.0646,3.0714,3.0636,3.0638,3.0649,3.0819,3.0822,3.0836,3.072,3.0722,3.0724,3.0813,0,2.9911,3.0037,3.0073,3.018,3.0244,3.0266,3.0328,3.0385,3.0421,3.0481,3.0521,3.0589,3.0579,3.0606,3.0652,3.0696,3.0749,3.069,3.0778,3.078,3.076,3.0851,3.0855,3.0936,3.0825,3.0828,3.0829,0,3.0016,3.008,3.0194,3.027,3.0298,3.0353,3.0427,3.0485,3.0551,3.0574,3.0625,3.0645,3.0721,3.0695,3.08,3.0759,3.0798,3.0825,3.0829,3.0838,3.0808,3.0864,3.0962,3.0975,3.0848,3.0846,3.0845,0,3.0051,3.0166,3.025,3.0284,3.0374,3.0412,3.0451,3.0515,3.056,3.0625,3.0655,3.0727,3.0767,3.0823,3.0863,3.084,3.0966,3.0943,3.0988,3.0987,3.1013,3.1011,3.1119,3.1037,3.1037,3.1036,3.1036,0,3.0132,3.0201,3.0267,3.0319,3.0398,3.0439,3.0516,3.0556,3.0613,3.0674,3.0696,3.0753,3.0801,3.0865,3.0896,3.098,3.0997,3.1019,3.1026,3.1017,3.1014,3.1042,3.1038,3.104,3.1039,3.1038,3.1038,0,3.0184,3.0231,3.0324,3.0403,3.0424,3.0479,3.0547,3.0598,3.0636,3.0713,3.0733,3.0793,3.0869,3.0914,3.1009,3.1031,3.1124,3.1128,3.1102,3.1105,3.1148,3.1144,3.1279,3.13,3.1202,3.1203,3.1204,0,3.0233,3.0287,3.0372,3.0415,3.0455,3.0523,3.057,3.0613,3.0661,3.0742,3.0784,3.0862,3.0926,3.1046,3.1098,3.1172,3.118,3.1222,3.1191,3.1181,3.1182,3.1178,3.1185,3.1227,3.1228,3.1228,3.1229,0,3.0315,3.0337,3.0403,3.0479,3.0534,3.0595,3.0656,3.0689,3.0743,3.0796,3.0875,3.0925,3.1024,3.1101,3.118,3.1221,3.1235,3.1239,3.1254,3.1245,3.1227,3.1239,3.1117,3.1235,3.1235,3.1234,3.1234,3.1234,3.0368,3.0418,3.0487,3.0561,3.0612,3.0669,3.0722,3.0768,3.0835,3.0919,3.0941,3.1024,3.1092,3.1199,3.1242,3.1309,3.1302,3.1322,3.1328,3.1333,3.1334,3.1217,3.1323,3.1323,3.1323,3.1323,3.1322,0,3.0453,3.0499,3.0567,3.0653,3.0711,3.072,3.0789,3.0838,3.0911,3.0973,3.1036,3.1128,3.1204,3.1263,3.1342,3.1383,3.1392,3.1403,3.14,3.141,3.1335,3.1315,3.1395,3.1395,3.1395,3.1395,3.1395,3.1394,3.0504,3.059,3.062,3.0733,3.0778,3.0861,3.0899,3.0953,3.1003,3.1105,3.1169,3.1207,3.1269,3.1352,3.1423,3.1439,3.1467,3.1477,3.1493,3.1422,3.1415,3.1407,3.1389,3.1482,3.1482,3.1563,3.1563,3.1564]}]]